Location: Helensbirgh
(56.0153°N, 4.7348°W)
Time: 20:11:11
(UTC+00:00)

N. Korean satellite - Pass Details

Date: 24 October 2019
Orbit: 456 x 506 km, 97.2° (Epoch: 20 November)

Event Time Altitude Azimuth Distance (km) Brightness Sun altitude
Rises 07:10:10 0° 17° (NNE) 2,566 10.4 -8.7°
Reaches altitude 10° 07:12:16 10° 22° (NNE) 1,689 9.5 -8.4°
Maximum altitude 07:15:51 54° 100° (E) 611 7.5 -7.9°
Drops below altitude 10° 07:19:26 10° 179° (S) 1,700 9.5 -7.4°
Sets 07:21:34 0° 184° (S) 2,585 10.3 -7.1°
